FW1929 Weather Reports


time (UTC)temp
C
wind
direction
speed
KPH
gust
KPH
rain 1hr
cm
rain 24hr
cm
rain mn
cm
humidity
%
barometer
mb
20260906213100 30 116 14.5 20.9 0.00 0.00 0.00 27 1008.5
20260906211559 30 131 14.5 22.5 0.00 0.00 0.00 27 1008.8
20260906210108 30 116 8.0 20.9 0.00 0.00 0.00 27 1009.1
20260906204550 30 152 8.0 29.0 0.00 0.00 0.00 28 1009.3
20260906203049 30 120 12.9 24.1 0.00 0.00 0.00 27 1009.4
20260906201547 30 137 8.0 20.9 0.00 0.00 0.00 28 1009.6
20260906200050 28 84 6.4 19.3 0.00 0.00 0.00 33 1009.8
20260906194604 28 123 9.7 19.3 0.00 0.00 0.00 31 1009.9
20260906193039 28 95 8.0 19.3 0.00 0.00 0.00 32 1010.1
20260906191536 28 102 9.7 20.9 0.00 0.00 0.00 33 1010.5
20260906190035 27 327 4.8 9.7 0.00 0.00 0.00 35 1010.8
20260906184534 27 90 8.0 19.3 0.00 0.00 0.00 35 1011.2
20260906183039 27 85 4.8 19.3 0.00 0.00 0.00 36 1011.4
20260906181538 27 43 6.4 17.7 0.00 0.00 0.00 36 1011.5
20260906180037 26 22 8.0 24.1 0.00 0.00 0.00 36 1011.7
20260906174534 26 40 9.7 17.7 0.00 0.00 0.00 37 1011.8
20260906173023 26 4 9.7 19.3 0.00 0.00 0.00 37 1011.9
20260906171517 25 33 11.3 20.9 0.00 0.00 0.00 38 1012.1
20260906170015 26 33 6.4 19.3 0.00 0.00 0.00 37 1012.2
20260906164518 25 28 3.2 19.3 0.00 0.00 0.00 39 1012.2
20260906163018 25 180 4.8 12.9 0.00 0.00 0.00 38 1012.4
20260906161505 24 37 3.2 11.3 0.00 0.00 0.00 40 1012.4
20260906160101 23 72 3.2 8.0 0.00 0.00 0.00 43 1012.4
20260906154603 23 83 3.2 11.3 0.00 0.00 0.00 43 1012.2
20260906153059 23 118 3.2 9.7 0.00 0.00 0.00 42 1012.2
20260906151556 23 85 3.2 11.3 0.00 0.00 0.00 43 1012.2
20260906144601 22 112 1.6 6.4 0.00 0.00 0.00 44 1012.1
20260906143046 22 107 3.2 6.4 0.00 0.00 0.00 45 1012.2
20260906141547 22 124 3.2 12.9 0.00 0.00 0.00 45 1012.3
20260906140042 22 123 3.2 12.9 0.00 0.00 0.00 45 1012.1
20260906134541 22 161 3.2 8.0 0.00 0.00 0.00 44 1011.7
20260906133033 21 218 0.0 3.2 0.00 0.00 0.00 44 1011.5
20260906131530 20 211 0.0 0.0 0.00 0.00 0.00 49 1011.3
20260906130035 18 0.0 0.0 0.00 0.00 0.00 48 1011.2
20260906124522 17 359 0.0 4.8 0.00 0.00 0.00 50 1010.9
20260906123019 17 359 1.6 4.8 0.00 0.00 0.00 50 1010.9
20260906121519 17 359 0.0 4.8 0.00 0.00 0.00 49 1010.8
20260906120018 17 359 1.6 8.0 0.00 0.00 0.00 50 1010.8
20260906114532 17 359 1.6 6.4 0.00 0.00 0.00 50 1010.9
20260906113017 17 359 3.2 4.8 0.00 0.00 0.00 50 1010.8
20260906111516 17 359 0.0 3.2 0.00 0.00 0.00 49 1010.8
20260906110020 17 359 1.6 4.8 0.00 0.00 0.00 51 1010.8
20260906104518 17 359 3.2 6.4 0.00 0.00 0.00 50 1010.7
20260906103012 17 359 0.0 6.4 0.00 0.00 0.00 50 1010.7
20260906101511 17 359 0.0 3.2 0.00 0.00 0.00 51 1010.6
20260906100010 17 359 0.0 6.4 0.00 0.00 0.00 50 1010.5
20260906094521 17 359 0.0 4.8 0.00 0.00 0.00 50 1010.3
20260906093006 17 0.0 6.4 0.00 0.00 0.00 49 1010.2
20260906091606 19 0.0 6.4 0.00 0.00 0.00 46 1010.1
20260906090057 20 0.0 6.4 0.00 0.00 0.00 41 1010.1
20260906084555 22 0.0 6.4 0.00 0.00 0.00 33 1009.4
20260906083055 22 0.0 9.7 0.00 0.00 0.00 33 1009.3
20260906081555 22 0.0 9.7 0.00 0.00 0.00 36 1009.4
20260906080055 22 359 11.3 19.3 0.00 0.00 0.00 35 1009.5
20260906074554 22 359 0.0 17.7 0.00 0.00 0.00 36 1009.4
20260906073052 22 0.0 9.7 0.00 0.00 0.00 38 1009.2
20260906071548 21 0.0 4.8 0.00 0.00 0.00 41 1009.2
20260906070049 21 0.0 6.4 0.00 0.00 0.00 41 1009.1
20260906064546 21 359 4.8 9.7 0.00 0.00 0.00 42 1009.2
20260906063045 22 0.0 6.4 0.00 0.00 0.00 40 1009.3
20260906061543 22 359 3.2 12.9 0.00 0.00 0.00 40 1009.3
20260906060040 20 0.0 8.0 0.00 0.00 0.00 46 1009.4
20260906054539 19 0.0 6.4 0.00 0.00 0.00 50 1009.6
20260906053038 19 224 1.6 6.4 0.00 0.00 0.00 54 1009.6
20260906051538 19 222 0.0 3.2 0.00 0.00 0.00 54 1009.8
20260906050038 20 223 1.6 4.8 0.00 0.00 0.00 53 1009.9
20260906044542 20 359 0.0 6.4 0.00 0.00 0.00 50 1010.1
20260906043043 21 275 6.4 11.3 0.00 0.00 0.00 50 1010.1
20260906041538 21 256 3.2 8.0 0.00 0.00 0.00 51 1010.2
20260906040038 21 254 3.2 6.4 0.00 0.00 0.00 50 1010.3
20260906034543 21 266 4.8 17.7 0.00 0.00 0.00 47 1010.2
20260906033036 22 1.6 8.0 0.00 0.00 0.00 39 1009.8
20260906031547 22 359 0.0 9.7 0.00 0.00 0.00 40 1009.8
20260906030034 21 0.0 8.0 0.00 0.00 0.00 42 1009.4
20260906024534 21 359 1.6 8.0 0.00 0.00 0.00 42 1009.2
20260906023034 21 359 3.2 6.4 0.00 0.00 0.00 42 1009.2
20260906021533 21 359 0.0 8.0 0.00 0.00 0.00 42 1009.0
20260906020048 22 1.6 6.4 0.00 0.00 0.00 42 1008.7
20260906014535 22 359 1.6 3.2 0.00 0.00 0.00 41 1008.6
20260906013033 23 138 0.0 3.2 0.00 0.00 0.00 40 1008.6
20260906011531 23 267 0.0 6.4 0.00 0.00 0.00 40 1008.5
20260906010031 23 271 4.8 6.4 0.00 0.00 0.00 40 1008.6
20260906004530 23 274 3.2 6.4 0.00 0.00 0.00 40 1008.7
20260906003031 24 266 0.0 9.7 0.00 0.00 0.00 38 1008.7
20260906001532 25 4 0.0 3.2 0.00 0.00 0.00 36 1008.8
20260906000030 26 4 1.6 8.0 0.00 0.00 0.00 34 1008.8
20260905234528 26 30 6.4 14.5 0.00 0.00 0.00 35 1008.8
20260905233032 26 345 8.0 14.5 0.00 0.00 0.00 34 1008.8
20260905231526 26 73 3.2 16.1 0.00 0.00 0.00 35 1009.0
20260905230027 26 12 11.3 22.5 0.00 0.00 0.00 37 1009.1
20260905224526 26 342 8.0 19.3 0.00 0.03 0.00 38 1009.1
20260905223035 26 307 4.8 16.1 0.00 0.03 0.00 36 1009.0
20260905221538 26 290 6.4 14.5 0.00 0.03 0.00 35 1008.9
20260905220124 26 289 8.0 12.9 0.00 0.03 0.00 37 1008.9
20260905214525 26 306 4.8 9.7 0.00 0.03 0.00 40 1009.1